Doylestown, PA

8:56 AM EST on December 08, 2019 (GMT -0500)
Doylestown

Weather History for KDYL - October, 2019

Change the Weather History Date:

Wednesday, October 9, 2019

  Actual Average (WUND) Record (WUND)
Temperature  
Mean Temperature 56 °F -  
Max Temperature 61 °F - - (-1)
Min Temperature 52 °F - - (-1)
Degree Days  
Heating Degree Days 9    
Growing Degree Days 6 (Base 50)    
Moisture  
Dew Point 47 °F    
Average Humidity 73    
Maximum Humidity 90    
Minimum Humidity 60    
Precipitation  
Precipitation 0.00 in - - ()
Sea Level Pressure  
Sea Level Pressure 30.24 in    
Wind  
Wind Speed 9 mph (NNE)    
Max Wind Speed 15 mph    
Max Gust Speed 25 mph    
Visibility 10 miles    
Events Rain    
Averages and records for this station are not official NWS values.
T = Trace of Precipitation, MM = Missing Value Source: NWS Daily Summary

Daily Weather History Graph

Daily Weather History Graph

Search for Another Location

Airport or City:

Astronomy

Oct. 09, 2019 Rise Set
Actual Time 7:04 AM EDT 6:30 PM EDT
Civil Twilight 6:37 AM EDT 6:57 PM EDT
Nautical Twilight 6:05 AM EDT 7:28 PM EDT
Astronomical Twilight 5:34 AM EDT 8:00 PM EDT
Moon 5:01 PM EDT (10/9) 2:48 AM EDT (10/9)
Length of Visible Light 12h 19m
Length of Day
11h 25m
Waxing Gibbous, 85% of the Moon is Illuminated
Oct 9
Waxing Gibbous
Oct 13
Full
Oct 21
Last Quarter
Oct 27
New
Nov 4
First Quarter

Hourly Weather History & Observations

Time (EDT) Temp. Dew Point Humidity Pressure Visibility Wind Dir Wind Speed Gust Speed Precip Events Conditions
12:54 AM 59.0 °F 46.0 °F 62% 30.20 in 10.0 mi NNE 10.4 mph - N/A   Overcast
1:54 AM 57.9 °F 45.0 °F 62% 30.22 in 10.0 mi NNE 8.1 mph - N/A   Mostly Cloudy
2:54 AM 57.9 °F 45.0 °F 62% 30.20 in 10.0 mi NNE 10.4 mph - N/A   Mostly Cloudy
3:54 AM 57.9 °F 44.1 °F 60% 30.19 in 10.0 mi NNE 9.2 mph 19.6 mph N/A   Overcast
4:54 AM 57.9 °F 44.1 °F 60% 30.20 in 10.0 mi NE 8.1 mph 17.3 mph N/A   Overcast
5:54 AM 57.0 °F 45.0 °F 64% 30.21 in 10.0 mi NNE 9.2 mph - N/A   Overcast
6:54 AM 55.9 °F 45.0 °F 67% 30.22 in 10.0 mi NNE 8.1 mph - N/A   Overcast
7:54 AM 55.0 °F 45.0 °F 69% 30.24 in 10.0 mi NNE 5.8 mph - N/A   Overcast
8:54 AM 55.9 °F 45.0 °F 67% 30.26 in 10.0 mi North 5.8 mph - N/A   Overcast
9:54 AM 57.0 °F 46.0 °F 67% 30.26 in 10.0 mi NNE 6.9 mph - N/A   Overcast
10:54 AM 59.0 °F 45.0 °F 60% 30.27 in 10.0 mi NE 12.7 mph 25.3 mph N/A   Overcast
11:54 AM 57.9 °F 46.0 °F 65% 30.27 in 10.0 mi NE 12.7 mph 23.0 mph N/A Rain Light Rain
12:11 PM 60.1 °F 46.9 °F 62% 30.27 in 10.0 mi NE 8.1 mph - N/A Rain Light Rain
12:54 PM 59.0 °F 46.0 °F 62% 30.27 in 10.0 mi NNE 9.2 mph 20.7 mph N/A Rain Light Rain
1:54 PM 59.0 °F 46.0 °F 62% 30.26 in 10.0 mi NNE 10.4 mph 18.4 mph N/A   Mostly Cloudy
2:01 PM 57.9 °F 46.9 °F 67% 30.26 in 10.0 mi NNE 9.2 mph 18.4 mph N/A Rain Light Rain
2:54 PM 55.9 °F 48.9 °F 77% 30.26 in 10.0 mi NNE 6.9 mph - N/A Rain Light Rain
3:54 PM 54.0 °F 48.9 °F 83% 30.25 in 10.0 mi NNE 15.0 mph 24.2 mph N/A Rain Light Rain
4:13 PM 55.0 °F 50.0 °F 83% 30.24 in 10.0 mi NNE 8.1 mph - N/A Rain Light Rain
4:54 PM 55.0 °F 50.0 °F 83% 30.24 in 10.0 mi NNE 6.9 mph - N/A Rain Light Rain
5:54 PM 55.0 °F 51.1 °F 86% 30.24 in 10.0 mi North 5.8 mph - N/A Rain Light Rain
6:54 PM 54.0 °F 51.1 °F 90% 30.24 in 10.0 mi NNE 5.8 mph - N/A Rain Light Rain
7:04 PM 54.0 °F 51.1 °F 90% 30.24 in 10.0 mi North 5.8 mph - N/A Rain Light Rain
7:50 PM 53.6 °F 48.2 °F 82% 30.25 in 10.0 mi NNE 6.9 mph - N/A   Overcast
7:54 PM 53.1 °F 48.9 °F 86% 30.26 in 10.0 mi North 6.9 mph - N/A   Overcast
8:54 PM 52.0 °F 48.0 °F 86% 30.26 in 10.0 mi North 8.1 mph - N/A   Overcast
9:54 PM 52.0 °F 46.9 °F 83% 30.26 in 10.0 mi NNE 6.9 mph - N/A   Overcast
11:54 PM 52.0 °F 46.9 °F 83% 30.26 in 10.0 mi NNE 6.9 mph - N/A   Overcast